Location: Wildlife_Club
(35.6000°N, 81.4330°W)
Time: 00:15:39
(UTC-04:00)

Vanguard 2 Rocket - Pass Details

Date: 22 June 2019
Orbit: 554 x 3326 km, 32.9° (Epoch: 18 July)

Event Time Altitude Azimuth Distance (km) Brightness Sun altitude
Rises 22:46:40 0° 243° (WSW) 3,695 10.2 -19.7°
Reaches altitude 10° 22:48:49 10° 240° (WSW) 2,987 9.6 -20.0°
Maximum altitude 22:56:16 64° 160° (SSE) 1,766 8.0 -20.9°
Drops below altitude 10° 23:09:49 10° 84° (E) 5,200 10.5 -22.5°
Sets 23:14:50 0° 82° (E) 6,598 11.0 -23.1°
